Skip Page Navigation
NASA JPL Caltech
NASA Logo - Jet Propulsion Laboratory + View the NASA Portal
+ Center for Near-Earth Object Studies
JPL Home Earth Solar System Stars & Galaxies Technology
JPL Solar System Dynamics
BODIES ORBITS EPHEMERIDES TOOLS PHYSICAL DATA DISCOVERY FAQ SITE MAP
IMPORTANT: The SSD Announcement email list is now available. Major changes are coming in the near future, including possible hostname and/or URL changes. To be notified of such changes, subscribe to this email list.

Please visit this page for more details.


JPL Small-Body Database Browser
Search: [ help ]  
47180 (1999 TV119)
Classification: Main-belt Asteroid          SPK-ID: 2047180
Ephemeris | Orbit Diagram | Orbital Elements | Mission Design | Physical Parameters | Discovery Circumstances ]

[ show orbit diagram ]
Orbital Elements at Epoch 2458600.5 (2019-Apr-27.0) TDB
Reference: JPL 22 (heliocentric ecliptic J2000)
 Element Value Uncertainty (1-sigma)   Units 
e .08404019747796333 3.7935e-08  
a 2.20240889798131 7.4212e-09 au
q 2.017318019267737 8.3001e-08 au
i 2.453185675443947 5.5689e-06 deg
node 326.3965523001224 8.5887e-05 deg
peri 124.2277149294975 9.3233e-05 deg
M 287.3272631732539 3.5355e-05 deg
tp 2458841.498517733211
(2019-Dec-23.99851773)
0.00011754 TDB
period 1193.837884360859
3.27
6.0341e-06
1.652e-08
d
yr
n .3015484805064065 1.5241e-09 deg/d
Q 2.387499776694883 8.0448e-09 au
  Orbit Determination Parameters
   # obs. used (total)      1016  
   data-arc span      10494 days (28.73 yr)  
   first obs. used      1991-03-15  
   last obs. used      2019-12-07  
   planetary ephem.      DE431  
   SB-pert. ephem.      SB431-N16  
   condition code      0  
   norm. resid. RMS      .54254  
   source      ORB  
   producer      Otto Matic  
   solution date      2019-Dec-14 04:01:37  

Additional Information
 Earth MOID = 1.03514 au 
 Jupiter MOID = 2.73061 au 
 T_jup = 3.658 
[ show covariance matrix ]

Ephemeris | Orbit Diagram | Orbital Elements | Mission Design | Physical Parameters | Discovery Circumstances ]

Physical Parameter Table
Parameter Symbol Value Units Sigma Reference Notes
absolute magnitude H 15.7   n/a MPO412499  
diameter diameter 1.651 km 0.379 urn:nasa:pds:neowise_diameters_albedos::2.0[mainbelt] (http://adsabs.harvard.edu/abs/2011ApJ...741...68M)  
geometric albedo albedo 0.373   0.191 urn:nasa:pds:neowise_diameters_albedos::2.0[mainbelt] (http://adsabs.harvard.edu/abs/2011ApJ...741...68M)  

47180 (1999 TV119)          Discovered 1999-Oct-04 by LINEAR at Socorro
Reference: 20020921/Numbers.arcLast Updated: 2004-04-19

Alternate Designations
 1999 TV119 = 2001 FG50 
Ephemeris | Orbit Diagram | Orbital Elements | Mission Design | Physical Parameters | Discovery Circumstances ]
ABOUT SSD CREDITS/AWARDS PRIVACY/COPYRIGHT GLOSSARY LINKS
FirstGov 2020-Jan-22 11:20 UT
(server date/time)  
NASA Home Page
Site Manager:   Ryan S. Park
Webmaster  Alan B. Chamberlin